This is the latest recevied weather packets stored in our database for station/object N8SDR. If no packets are shown the sender has not sent any weather packets the latest 10 day(s).
| Time | Temp. | Humidity | Pressure | Rain* | Wind** | Luminosity | Snow |
|---|---|---|---|---|---|---|---|
| 1778081394 | 12.22° C | 68% | 1009.9 hPa | 0 mm | - | 602 W/m² | - |
| 1778081091 | 12.78° C | 67% | 1010.2 hPa | 0 mm | - | 827 W/m² | - |
| 1778080789 | 12.78° C | 70% | 1009.9 hPa | 0 mm | - | 823 W/m² | - |
| 1778080486 | 12.78° C | 66% | 1009.8 hPa | 0 mm | - | 825 W/m² | - |
| 1778080184 | 12.22° C | 67% | 1010 hPa | 0 mm | - | 798 W/m² | - |
| 1778079879 | 12.22° C | 70% | 1009.5 hPa | 0 mm | - | 769 W/m² | - |
| 1778079577 | 12.22° C | 68% | 1009.3 hPa | 0 mm | - | 776 W/m² | - |
| 1778079273 | 11.67° C | 70% | 1009.3 hPa | 0 mm | - | 579 W/m² | - |
| 1778078971 | 11.67° C | 71% | 1009.2 hPa | 0 mm | - | 441 W/m² | - |
| 1778078667 | 11.67° C | 70% | 1009.2 hPa | 0 mm | - | 727 W/m² | - |
| 1778078366 | 11.67° C | 72% | 1008.8 hPa | 0 mm | - | 388 W/m² | - |
| 1778078062 | 11.11° C | 73% | 1009 hPa | 0 mm | - | 855 W/m² | - |
| 1778077761 | 11.11° C | 73% | 1008.9 hPa | 0 mm | - | 647 W/m² | - |
| 1778077458 | 11.11° C | 75% | 1008.8 hPa | 0 mm | - | 608 W/m² | - |
| 1778077156 | 10.56° C | 77% | 1008.9 hPa | 0 mm | - | 576 W/m² | - |
| 1778076854 | 10.56° C | 78% | 1008.9 hPa | 0 mm | - | 264 W/m² | - |
| 1778076552 | 10.56° C | 79% | 1009 hPa | 0 mm | - | 180 W/m² | - |
| 1778076249 | 10.56° C | 79% | 1008.9 hPa | 0 mm | - | 311 W/m² | - |
| 1778075946 | 10.56° C | 80% | 1008.6 hPa | 0 mm | - | 530 W/m² | - |
| 1778075643 | 10° C | 82% | 1008.5 hPa | 0 mm | - | 379 W/m² | - |
| 1778075338 | 10° C | 82% | 1008.6 hPa | 0 mm | - | 260 W/m² | - |
| 1778075035 | 10° C | 86% | 1008.6 hPa | 0 mm | - | 212 W/m² | - |
| 1778074732 | 9.44° C | 86% | 1008.7 hPa | 0 mm | - | 245 W/m² | - |
| 1778074428 | 9.44° C | 87% | 1009 hPa | 0 mm | - | 272 W/m² | - |
| 1778074125 | 9.44° C | 88% | 1008.9 hPa | 0 mm | - | 235 W/m² | - |
* Rain latest hour (hover to see other rain measurements)
** Current wind speed in m/s (hover to see current wind gust speed)